SL-16 DEB, 39903

Orbit data source: Space-Track

SL-16 DEB, 39903 is space debris in LEO originally from a launch on Fri, 26 Mar 1993 UTC launched from the Tyuratam Missile And Space Complex (TTMTR). Debris objects in space refer to the collection of defunct objects orbiting the Earth. Examples of debris include non-operational satellites, rocket bodies, and fragments generated from explosions, collisions, or faulty payload assembly.

Loading next visibility...
Identifier
39903, 1993-016CD
Orbit
LEO
Country
Flag of CISCIS
Related business
Manufacturer
Unknown
Mission
Spacecraft
Bus & Motor
Unknown
Mass
Unknown
Launch date (UTC)
1993-03-26 (33 years ago)
Launch vehicle
Unknown
Launch site
Tyuratam Missile And Space Complex (TTMTR)
Object type
Payload
Rocket body
Debris
Shape & HBR
Unknown shape, 0.1 m
Radar Cross Section
Small (<0.1 m²)

Expand to show TLE details & history
Last TLE update: 1 week ago

TLE from 1 week ago
0 SL-16 DEB
1 39903U 93016CD  26246.91636896  .00000082  00000-0  98747-4 0  9990
2 39903  70.9915 332.1239 0132908  77.2536  42.8638 13.87774880621332
Epoch: 2026-09-03T21:59Z
TLE epoch observation values (Epoch: 2026-09-03T21:59:34.278Z)
Latitude
54.11092°
Longitude
170.91653°
Altitude
874.133 km
Speed
7.457 km/s
True Right ascension
08h 15m 25s
True Declination
53° 57' 00"
Sunlit
Object was in daylight at epoch
Visualization orbit readout
Latitude
Unknown
Longitude
Unknown
Altitude
Unknown
Speed
Unknown
Apparent Right ascension
Unknown
Apparent Declination
Unknown
Sunlit
N/A
Visualization observer readout
Local Sidereal Time
13:44:22
Azimuth
Unknown
Elevation
Unknown
Doppler factor
Unknown
Orbital elements
Apogee altitude
1,031.58 km
Perigee altitude
837.202 km
Semi-major axis
7,312.528 km
Eccentricity
0.01329
Inclination
70.9915°
RAAN
332.1239°
Arg. of periapsis
77.2536°
True anomaly
43.91255°
Mean anomaly
42.8638°
Eccentric anomaly
43.3869°
Mean motion
3.4709 °/min
Orbital period
103.72 mins
BSTAR
0.000098747
Loading maneuver chart data...
Computing Atmospheric mass density...
Loading historical data...
Loading historical data...
Loading historical data...
Loading historical data...
Loading historical data...
Loading historical data...
Loading historical data...

Documentation

Showing up to 5 results
|